[[[{"header":{"parameterUnit":"kt","parameterCategory":2,"dx":1,"dy":1,"la1":30.253999710083008,"la2":30.299108505249023,"lo1":-89.0895004272461,"lo2":-89.04439544677734,"nx":28,"ny":28,"refTime":"2022-10-29T21:00:00:Z","depth":0,"parameterNumber":1,"parameterNumberName":"U-component_of_WINDS"},"data":[-10.4452,-10.4899,-10.5163,-10.5792,-10.6135,-10.6609,-10.6863,-10.7217,-10.7565,-10.8157,-10.8543,-10.8851,-10.9301,-10.9822,-11.0251,-11.0379,-11.0542,-11.0506,-11.0661,-11.0587,-11.0594,-11.0601,-11.0515,-11.0537,-11.0537,-11.0702,-11.0703,-11.0704,-10.4366,-10.4711,-10.5122,-10.57,-10.6054,-10.6248,-10.672,-10.7002,-10.742,-10.7852,-10.8249,-10.8791,-10.9251,-10.9724,-11.021,-11.042,-11.0539,-11.0533,-11.0522,-11.059,-11.052,-11.0426,-11.0429,-11.0429,-11.0429,-11.0429,-11.0429,-11.0429,-10.4281,-10.4538,-10.5046,-10.5497,-10.586,-10.6243,-10.6534,-10.6912,-10.7315,-10.7861,-10.8097,-10.8573,-10.9056,-10.9774,-11.0079,-11.0455,-11.0509,-11.0586,-11.0606,-11.0618,-11.0596,-11.032,-11.055,-11.0551,-11.0552,-11.0553,-11.0554,0,-10.4302,-10.4507,-10.4923,-10.5416,-10.576,-10.6167,-10.6586,-10.6772,-10.7298,-10.7608,-10.8081,-10.8397,-10.902,-10.9491,-11.0007,-11.0316,-11.0547,-11.06,-11.0654,-11.0547,-11.0382,-11.0474,-11.0347,-11.0592,-11.0593,-11.0594,-11.0595,-11.0596,-10.4235,-10.4506,-10.5168,-10.5422,-10.5721,-10.6125,-10.642,-10.6866,-10.7158,-10.7737,-10.794,-10.8421,-10.883,-10.9538,-10.9975,-11.044,-11.0557,-11.0621,-11.0629,-11.0512,-11.056,-11.054,-11.0569,-11.061,-11.0609,-11.0607,-11.0606,0,-10.4171,-10.4612,-10.5118,-10.575,-10.5916,-10.6174,-10.6713,-10.6988,-10.7327,-10.7752,-10.7876,-10.8407,-10.8862,-10.9295,-10.99,-11.0111,-11.0535,-11.0638,-11.0371,-11.0415,-11.0516,-11.05,-11.0774,-11.0833,-11.0814,-11.0813,-11.0813,0,-10.4288,-10.4626,-10.5264,-10.5534,-10.5924,-10.6368,-10.6739,-10.707,-10.75,-10.7839,-10.8176,-10.8485,-10.8992,-10.9362,-10.9675,-11.0099,-11.0213,-11.04,-11.0479,-11.0371,-11.0347,-11.0532,-11.053,-11.0648,-11.0646,-11.0645,-11.0643,0,-10.4144,-10.4884,-10.5327,-10.5567,-10.6276,-10.6472,-10.6775,-10.7262,-10.7548,-10.7987,-10.8177,-10.8654,-10.8915,-10.9277,-10.9674,-10.9663,-11.0203,-11.0271,-11.0395,-11.0384,-11.0493,-11.0481,-11.0614,-11.0641,-11.0641,-11.064,-11.0639,0,-10.4308,-10.4752,-10.5328,-10.5928,-10.6104,-10.6394,-10.69,-10.725,-10.7738,-10.7957,-10.8306,-10.8584,-10.8993,-10.9027,-10.9596,-10.9469,-10.9705,-10.9923,-10.994,-11.0004,-11.0031,-11.0048,-11.0131,-11.0157,-11.0058,-11.0054,-11.005,0,-10.4021,-10.4724,-10.5116,-10.5652,-10.6038,-10.6398,-10.6728,-10.7152,-10.7474,-10.7844,-10.8197,-10.8614,-10.8733,-10.8924,-10.9149,-10.9529,-10.9693,-10.9519,-11.004,-11.0053,-10.99,-10.9982,-10.9887,-11.0065,-10.9994,-11.0,-11.0004,0,-10.3856,-10.4725,-10.4794,-10.5088,-10.5729,-10.6054,-10.6431,-10.6948,-10.7173,-10.7614,-10.7942,-10.8539,-10.8654,-10.8966,-10.9244,-10.9454,-10.9595,-10.9549,-10.9568,-10.9541,-11.0003,-10.991,-10.9939,-10.9734,-10.9741,-10.9747,-10.996,0,-10.4003,-10.4416,-10.4622,-10.5259,-10.558,-10.5942,-10.6416,-10.6688,-10.6927,-10.7261,-10.7749,-10.8214,-10.8736,-10.8884,-10.9118,-10.9462,-10.9473,-10.959,-10.9658,-10.9707,-10.9789,-10.9822,-10.9498,-10.9502,-10.9506,-10.951,0,0,-10.3619,-10.4222,-10.4644,-10.5034,-10.5331,-10.5704,-10.6049,-10.638,-10.704,-10.7235,-10.7277,-10.8184,-10.8559,-10.9104,-10.9156,-10.9366,-10.9471,-10.9436,-10.968,-10.9696,-10.9714,-10.9792,-10.982,-10.9517,-10.9518,-10.952,-10.9521,0,-10.3774,-10.416,-10.45,-10.4865,-10.5421,-10.5762,-10.5841,-10.6457,-10.6687,-10.7173,-10.7471,-10.782,-10.8534,-10.8894,-10.9169,-10.9382,-10.9587,-10.9505,-10.9464,-10.9704,-10.9715,-10.9727,-10.9804,-10.9826,-10.9531,-10.953,-10.953,0,-10.3697,-10.4155,-10.4371,-10.507,-10.5438,-10.5825,-10.6014,-10.6416,-10.6707,-10.7093,-10.7569,-10.7889,-10.8409,-10.8863,-10.9084,-10.9129,-10.9665,-10.958,-10.9568,-10.9602,-10.9858,-10.9871,-10.9882,-10.9726,-10.9725,-10.9724,0,0,-10.3764,-10.4154,-10.4786,-10.514,-10.535,-10.5863,-10.6117,-10.6385,-10.685,-10.7033,-10.7452,-10.789,-10.8311,-10.8578,-10.8997,-10.9429,-10.9571,-10.9584,-10.9576,-10.9566,-10.9594,-10.9846,-10.9859,-10.9719,-10.9719,-10.9719,0,0,-10.3798,-10.4548,-10.4711,-10.5182,-10.5615,-10.6259,-10.6455,-10.6668,-10.7096,-10.7107,-10.7573,-10.7711,-10.8144,-10.8447,-10.833,-10.9029,-10.9087,-10.9125,-10.8816,-10.8811,-10.8803,-10.8721,-10.8587,0,0,0,0,0,-10.4203,-10.4456,-10.4595,-10.4746,-10.5632,-10.6181,-10.6297,-10.6692,-10.6725,-10.6871,-10.7255,-10.7459,-10.8481,-10.8388,-10.8527,-10.8654,-10.9659,-10.967,-10.968,-10.9386,-10.9376,-10.9367,0,0,0,0,0,0,-10.4266,-10.4449,-10.459,-10.5237,-10.5441,-10.6176,-10.6319,-10.6434,-10.672,-10.6752,-10.7379,-10.7479,-10.7823,-10.8344,-10.8463,-10.8575,-10.8548,-10.9663,-10.9672,-10.968,-10.9383,-10.9374,-10.9367,0,0,0,0,0,-10.4318,-10.4465,-10.5784,-10.5238,-10.5414,-10.6,-10.6313,-10.6411,-10.6638,-10.7236,-10.7342,-10.6911,-10.7815,-10.7943,-10.8417,-10.8511,-10.8468,-10.8511,-10.9669,-10.9676,-10.9683,-10.9379,0,0,0,0,0,0,-10.4356,-10.4557,-10.5828,-10.5896,-10.5174,-10.5967,-10.6105,-10.6387,-10.7111,-10.7219,-10.6789,-10.6805,-10.7813,-10.7913,-10.8009,-10.8467,-10.8403,-10.8447,-10.8474,-10.9674,-10.968,-10.9685,0,0,0,0,0,0,-10.448,-10.4611,-10.5863,-10.5761,-10.5822,-10.5934,-10.6057,-10.6516,-10.7115,-10.6625,-10.6662,-10.6788,-10.7666,-10.7892,-10.7968,-10.867,-10.8353,-10.8395,-10.8424,-10.8442,-10.9679,-10.9683,0,0,0,0,0,0,-10.4542,-10.4656,-10.5746,-10.5792,-10.5845,-10.6641,-10.6347,-10.7231,-10.7031,-10.6587,-10.7023,-10.702,-10.764,-10.7726,-10.7939,-10.8606,-10.8653,-10.8354,-10.8383,-10.8403,-10.8417,0,0,0,0,0,0,0,-10.4593,-10.3742,-10.5423,-10.5818,-10.5864,-10.6527,-10.6546,-10.6564,-10.703,-10.7027,-10.7024,-10.7022,-10.8114,-10.816,-10.8206,-10.8553,0,0,-10.835,-10.8371,0,0,0,0,0,0,0,0,-10.3704,-10.3733,-10.5426,-10.544,-10.5454,-10.653,-10.6545,-10.656,-10.7029,-10.7027,-10.7025,-10.7023,-10.8126,-10.8163,-10.8201,0,0,0,0,0,0,0,0,0,0,0,0,0,0,0,-10.5427,-10.5439,0,-10.6532,-10.6545,-10.6557,-10.7029,-10.7027,-10.7025,-10.7023,-10.8137,-10.8167,-10.8198,0,0,0,0,0,0,0,0,0,0,0,0,0,0,0,0,0,0,0,0,0,0,0,0,0,0,0,0,0,0,0,0,0,0,0,0,0,0,0,0,0,0,0,0,0,0,0,0,0,0,0,0,0,0,0,0,0,0,0,0,0,0,0,0,0,0,0,0,0]}],[{"header":{"parameterUnit":"kt","parameterCategory":2,"dx":1,"dy":1,"la1":30.253999710083008,"la2":30.299108505249023,"lo1":-89.0895004272461,"lo2":-89.04439544677734,"nx":28,"ny":28,"refTime":"2022-10-29T21:00:00:Z","depth":0,"parameterNumber":2,"parameterNumberName":"V-component_of_WINDS"},"data":[12.0712,12.0824,12.0895,12.1053,12.1141,12.1258,12.1321,12.1408,12.1493,12.1635,12.1727,12.1799,12.1903,12.2022,12.212,12.2148,12.2184,12.2179,12.2212,12.2184,12.2184,12.2184,12.2166,12.2186,12.2187,12.2233,12.2233,12.2234,12.07,12.0792,12.0894,12.1039,12.1128,12.1178,12.1293,12.1361,12.146,12.1563,12.1656,12.1781,12.1886,12.1991,12.21,12.2147,12.2172,12.2172,12.2168,12.2184,12.2157,12.2136,12.2151,12.2151,12.2151,12.2151,12.2151,12.2151,12.0696,12.0759,12.0888,12.0999,12.1089,12.1183,12.1251,12.1342,12.1437,12.1564,12.1618,12.1727,12.1836,12.1993,12.2058,12.2142,12.215,12.2167,12.2172,12.2174,12.2172,12.2104,12.2162,12.2162,12.2162,12.2162,12.2162,0,12.0714,12.0769,12.0868,12.0991,12.1073,12.117,12.1269,12.1312,12.1434,12.1505,12.1613,12.1684,12.1821,12.1924,12.2036,12.2099,12.2146,12.2155,12.2168,12.2145,12.2114,12.2134,12.2089,12.2151,12.2151,12.2151,12.2151,12.2151,12.0717,12.0778,12.0941,12.1002,12.1072,12.1165,12.1234,12.1337,12.1403,12.1534,12.1579,12.1685,12.1774,12.1926,12.2017,12.2115,12.2137,12.2156,12.2151,12.2131,12.2139,12.2135,12.2143,12.2153,12.2153,12.2152,12.2152,0,12.0713,12.082,12.0934,12.1084,12.1124,12.1181,12.1306,12.1366,12.1442,12.1535,12.1562,12.1677,12.1775,12.1864,12.1988,12.2031,12.2123,12.2141,12.2091,12.2099,12.2125,12.2122,12.2192,12.2208,12.2186,12.2186,12.2187,0,12.0756,12.0829,12.0984,12.1043,12.113,12.1231,12.1312,12.1384,12.1479,12.1553,12.1624,12.169,12.1792,12.187,12.1932,12.2022,12.2044,12.2081,12.2096,12.2075,12.207,12.2104,12.2103,12.2125,12.2125,12.2124,12.2124,0,12.0738,12.0901,12.1001,12.1054,12.1214,12.1257,12.1324,12.1428,12.1489,12.1583,12.1624,12.1721,12.1774,12.1847,12.1927,12.1921,12.2037,12.2044,12.2075,12.2073,12.2092,12.2089,12.2134,12.2123,12.2123,12.2123,12.2123,0,12.0785,12.0886,12.101,12.1148,12.1185,12.1245,12.1354,12.1426,12.1529,12.1575,12.1646,12.17,12.1784,12.1787,12.1904,12.1875,12.1922,12.1965,12.1969,12.1978,12.1978,12.1991,12.2026,12.2033,12.1994,12.1993,12.1992,0,12.0739,12.089,12.0978,12.109,12.1173,12.1251,12.132,12.1408,12.1474,12.1549,12.1619,12.1699,12.172,12.1756,12.1803,12.1875,12.1913,12.1872,12.1973,12.1976,12.1948,12.1981,12.1964,12.201,12.1979,12.198,12.1981,0,12.0714,12.0908,12.0921,12.0987,12.1121,12.1185,12.1262,12.1368,12.1414,12.15,12.1567,12.1679,12.1701,12.1757,12.1808,12.1851,12.189,12.1865,12.1868,12.1868,12.1978,12.1963,12.1971,12.1914,12.1916,12.1917,12.1971,0,12.077,12.0855,12.0895,12.1027,12.1092,12.1163,12.126,12.1314,12.1361,12.1426,12.1521,12.1606,12.1702,12.1731,12.1771,12.1842,12.1843,12.186,12.1864,12.1885,12.1905,12.1913,12.1829,12.183,12.183,12.1831,0,0,12.0699,12.0821,12.0908,12.0987,12.1047,12.1121,12.1189,12.1253,12.1377,12.1415,12.1421,12.1589,12.1654,12.1758,12.1772,12.1808,12.1829,12.1814,12.1875,12.1879,12.1884,12.1903,12.191,12.1832,12.1832,12.1832,12.1832,0,12.0739,12.0815,12.0882,12.0956,12.1066,12.1132,12.1148,12.1266,12.1309,12.1401,12.1453,12.1519,12.1644,12.171,12.1759,12.1807,12.1838,12.1829,12.1827,12.1877,12.1881,12.1884,12.1904,12.191,12.1833,12.1833,12.1833,0,12.0733,12.0824,12.0866,12.1002,12.1071,12.1147,12.1181,12.1255,12.1312,12.1375,12.1463,12.152,12.1611,12.1695,12.1734,12.1738,12.1843,12.1821,12.182,12.1825,12.1877,12.1881,12.1885,12.1832,12.1832,12.1831,0,0,12.0752,12.0829,12.0952,12.1016,12.1058,12.1154,12.12,12.125,12.1334,12.1367,12.1439,12.1516,12.1591,12.1637,12.1711,12.1788,12.1813,12.1818,12.1818,12.1818,12.1822,12.1873,12.1878,12.183,12.183,12.183,0,0,12.0759,12.0908,12.094,12.1026,12.1109,12.1228,12.1262,12.1302,12.1378,12.1379,12.1457,12.148,12.1559,12.1608,12.1583,12.1713,12.1716,12.1723,12.1676,12.1678,12.1678,12.1663,12.1619,0,0,0,0,0,12.0847,12.0891,12.0919,12.0948,12.1111,12.1214,12.1235,12.1305,12.131,12.1337,12.1404,12.1433,12.1613,12.1593,12.1616,12.1641,12.1814,12.1817,12.182,12.1778,12.1778,12.1779,0,0,0,0,0,0,12.0858,12.0893,12.0918,12.1038,12.1076,12.1213,12.1237,12.1257,12.1309,12.1315,12.142,12.1436,12.1493,12.1585,12.1605,12.1628,12.1613,12.1815,12.1818,12.182,12.1778,12.1778,12.1779,0,0,0,0,0,12.0868,12.0896,12.1141,12.1038,12.1071,12.1176,12.1235,12.1253,12.1293,12.1395,12.1412,12.1342,12.1492,12.1513,12.1597,12.1617,12.16,12.1607,12.1817,12.1819,12.1821,12.1778,0,0,0,0,0,0,12.0875,12.091,12.1149,12.1161,12.1026,12.117,12.1195,12.1248,12.1371,12.1389,12.132,12.1322,12.1491,12.1508,12.1524,12.161,12.1589,12.1596,12.16,12.1818,12.182,12.1821,0,0,0,0,0,0,12.0896,12.092,12.1155,12.1136,12.1147,12.1163,12.1186,12.1263,12.1371,12.1289,12.1296,12.1319,12.1464,12.1505,12.1517,12.1636,12.158,12.1587,12.1592,12.1595,12.182,12.1821,0,0,0,0,0,0,12.0907,12.0928,12.1133,12.1141,12.1151,12.1294,12.1233,12.1394,12.1362,12.1282,12.136,12.136,12.146,12.1474,12.1513,12.1625,12.1633,12.158,12.1585,12.1589,12.1591,0,0,0,0,0,0,0,12.0917,12.076,12.1077,12.1146,12.1154,12.1276,12.1279,12.1283,12.1362,12.1361,12.1361,12.136,12.154,12.1548,12.1556,12.1617,0,0,12.158,12.1583,0,0,0,0,0,0,0,0,12.0753,12.0758,12.1077,12.108,12.1082,12.1277,12.1279,12.1282,12.1362,12.1361,12.1361,12.136,12.1542,12.1548,12.1555,0,0,0,0,0,0,0,0,0,0,0,0,0,0,0,12.1077,12.1079,0,12.1277,12.1279,12.1281,12.1362,12.1361,12.1361,12.136,12.1544,12.1549,12.1554,0,0,0,0,0,0,0,0,0,0,0,0,0,0,0,0,0,0,0,0,0,0,0,0,0,0,0,0,0,0,0,0,0,0,0,0,0,0,0,0,0,0,0,0,0,0,0,0,0,0,0,0,0,0,0,0,0,0,0,0,0,0,0,0,0,0,0,0,0]}]]]